Time,TemperatureF,DewpointF,PressureIn,WindDirection,WindDirectionDegrees,WindSpeedMPH,WindSpeedGustMPH,Humidity,HourlyPrecipIn,Conditions,Clouds,dailyrainin,SolarRadiationWatts/m^2,SoftwareType,DateUTC
2013-07-16 00:12:00,75.0,73.0,-100.00,East,101,3.0,-999.0,92,0.00,,,-99.99,0.000000,,2013-07-16 04:12:00,
2013-07-16 00:22:00,75.0,73.0,-100.00,East,97,4.0,-999.0,93,0.00,,,-99.99,0.000000,,2013-07-16 04:22:00,
2013-07-16 00:32:00,75.0,73.0,-100.00,East,97,4.0,-999.0,93,0.00,,,-99.99,0.000000,,2013-07-16 04:32:00,
2013-07-16 00:53:00,75.0,73.0,-100.00,East,96,4.0,-999.0,92,0.00,,,-99.99,0.000000,,2013-07-16 04:53:00,
2013-07-16 01:01:00,75.0,73.0,-100.00,East,96,4.0,-999.0,92,0.00,,,-99.99,0.000000,,2013-07-16 05:01:00,
2013-07-16 01:22:00,75.0,73.0,-100.00,ESE,103,2.0,-999.0,92,0.00,,,-99.99,0.000000,,2013-07-16 05:22:00,
2013-07-16 01:43:00,74.0,72.0,-100.00,ENE,77,2.0,-999.0,94,0.00,,,-99.99,0.000000,,2013-07-16 05:43:00,
2013-07-16 01:52:00,74.0,72.0,-100.00,ENE,72,3.0,-999.0,95,0.00,,,-99.99,0.000000,,2013-07-16 05:52:00,
2013-07-16 02:11:00,73.0,72.0,-100.00,ENE,77,5.0,-999.0,96,0.00,,,-99.99,0.000000,,2013-07-16 06:11:00,
2013-07-16 02:22:00,74.0,73.0,-100.00,East,85,4.0,-999.0,96,0.00,,,-99.99,0.000000,,2013-07-16 06:22:00,
2013-07-16 02:32:00,74.0,73.0,-100.00,East,85,4.0,-999.0,96,0.00,,,-99.99,0.000000,,2013-07-16 06:32:00,
2013-07-16 02:43:00,74.0,73.0,-100.00,East,81,4.0,-999.0,95,0.00,,,-99.99,0.000000,,2013-07-16 06:43:00,
2013-07-16 02:52:00,74.0,73.0,-100.00,East,90,3.0,-999.0,94,0.00,,,-99.99,0.000000,,2013-07-16 06:52:00,
2013-07-16 03:01:00,74.0,72.0,-100.00,ENE,75,3.0,-999.0,95,0.00,,,-99.99,0.000000,,2013-07-16 07:01:00,
2013-07-16 03:22:00,74.0,73.0,-100.00,ESE,110,5.0,-999.0,95,0.08,,,-99.99,0.000000,,2013-07-16 07:22:00,
2013-07-16 03:52:00,74.0,73.0,-100.00,East,79,5.0,-999.0,96,0.00,,,-99.99,0.000000,,2013-07-16 07:52:00,
2013-07-16 04:01:00,74.0,73.0,-100.00,East,81,3.0,-999.0,97,0.00,,,-99.99,0.000000,,2013-07-16 08:01:00,
2013-07-16 04:22:00,74.0,73.0,-100.00,ESE,110,3.0,-999.0,97,0.00,,,-99.99,0.000000,,2013-07-16 08:22:00,
2013-07-16 04:43:00,74.0,73.0,-100.00,East,99,3.0,-999.0,97,0.00,,,-99.99,0.000000,,2013-07-16 08:43:00,
2013-07-16 04:52:00,74.0,73.0,-100.00,ENE,62,2.0,-999.0,97,0.00,,,-99.99,0.000000,,2013-07-16 08:52:00,
2013-07-16 05:22:00,72.0,72.0,-100.00,ENE,59,2.0,-999.0,98,0.00,,,-99.99,0.000000,,2013-07-16 09:22:00,
2013-07-16 05:32:00,72.0,72.0,-100.00,ENE,59,2.0,-999.0,98,0.00,,,-99.99,0.000000,,2013-07-16 09:32:00,
2013-07-16 05:52:00,73.0,72.0,-100.00,NE,52,4.0,-999.0,99,0.00,,,-99.99,0.000000,,2013-07-16 09:52:00,
2013-07-16 06:01:00,73.0,72.0,-100.00,NE,52,4.0,-999.0,99,0.00,,,-99.99,0.000000,,2013-07-16 10:01:00,
2013-07-16 06:31:00,72.0,72.0,-100.00,NNW,343,1.0,-999.0,99,0.00,,,-99.99,0.000000,,2013-07-16 10:31:00,
2013-07-16 06:52:00,72.0,72.0,-100.00,NNE,25,3.0,-999.0,100,0.00,,,-99.99,0.300000,,2013-07-16 10:52:00,
2013-07-16 07:01:00,72.0,72.0,-100.00,NNE,25,3.0,-999.0,100,0.00,,,-99.99,0.300000,,2013-07-16 11:01:00,
2013-07-16 07:32:00,72.0,72.0,-100.00,ENE,59,4.0,-999.0,100,0.00,,,-99.99,7.300000,,2013-07-16 11:32:00,
2013-07-16 07:42:00,73.0,73.0,-100.00,ENE,65,3.0,-999.0,100,0.00,,,-99.99,44.900002,,2013-07-16 11:42:00,
2013-07-16 07:53:00,74.0,74.0,-100.00,ENE,58,3.0,-999.0,99,0.00,,,-99.99,31.900000,,2013-07-16 11:53:00,
2013-07-16 08:11:00,74.0,74.0,-100.00,NE,43,4.0,-999.0,99,0.00,,,-99.99,34.599998,,2013-07-16 12:11:00,
2013-07-16 08:32:00,76.0,75.0,-100.00,ENE,73,4.0,-999.0,98,0.03,,,-99.99,167.800003,,2013-07-16 12:32:00,
2013-07-16 08:43:00,78.0,77.0,-100.00,East,87,5.0,-999.0,95,0.00,,,-99.99,291.100006,,2013-07-16 12:43:00,
2013-07-16 08:53:00,80.0,75.0,-100.00,East,101,7.0,-999.0,86,0.00,,,-99.99,313.500000,,2013-07-16 12:53:00,
2013-07-16 09:11:00,80.0,74.0,-100.00,East,96,7.0,-999.0,80,0.00,,,-99.99,256.700012,,2013-07-16 13:11:00,
2013-07-16 09:22:00,78.0,73.0,-100.00,East,97,6.0,-999.0,83,0.00,,,-99.99,132.500000,,2013-07-16 13:22:00,
2013-07-16 09:32:00,78.0,73.0,-100.00,East,97,6.0,-999.0,83,0.00,,,-99.99,132.500000,,2013-07-16 13:32:00,
2013-07-16 09:52:00,82.0,74.0,-100.00,East,94,10.0,-999.0,77,0.00,,,-99.99,492.500000,,2013-07-16 13:52:00,
2013-07-16 10:02:00,82.0,74.0,-100.00,East,94,10.0,-999.0,77,0.00,,,-99.99,492.500000,,2013-07-16 14:02:00,
2013-07-16 10:22:00,83.0,74.0,-100.00,East,93,10.0,-999.0,74,0.00,,,-99.99,601.799988,,2013-07-16 14:22:00,
2013-07-16 10:43:00,83.0,75.0,-100.00,East,81,10.0,-999.0,75,0.00,,,-99.99,620.400024,,2013-07-16 14:43:00,
2013-07-16 10:52:00,83.0,75.0,-100.00,East,89,12.0,-999.0,76,0.00,,,-99.99,593.700012,,2013-07-16 14:52:00,
2013-07-16 11:01:00,83.0,75.0,-100.00,East,89,12.0,-999.0,76,0.00,,,-99.99,593.700012,,2013-07-16 15:01:00,
2013-07-16 11:11:00,83.0,76.0,-100.00,East,89,11.0,-999.0,78,0.00,,,-99.99,453.799988,,2013-07-16 15:11:00,
2013-07-16 11:22:00,83.0,76.0,-100.00,East,86,11.0,-999.0,77,0.00,,,-99.99,575.299988,,2013-07-16 15:22:00,
2013-07-16 11:43:00,84.0,74.0,-100.00,East,80,14.0,-999.0,71,0.00,,,-99.99,769.000000,,2013-07-16 15:43:00,
2013-07-16 11:53:00,84.0,75.0,-100.00,East,79,14.0,-999.0,72,0.00,,,-99.99,731.000000,,2013-07-16 15:53:00,
2013-07-16 12:01:00,84.0,75.0,-100.00,East,79,14.0,-999.0,72,0.00,,,-99.99,731.000000,,2013-07-16 16:01:00,
2013-07-16 12:32:00,85.0,75.0,-100.00,East,84,15.0,-999.0,73,0.00,,,-99.99,853.000000,,2013-07-16 16:32:00,
2013-07-16 13:02:00,83.0,75.0,-100.00,ENE,78,13.0,-999.0,76,0.00,,,-99.99,150.000000,,2013-07-16 17:02:00,
2013-07-16 13:12:00,82.0,75.0,-100.00,East,85,14.0,-999.0,78,0.00,,,-99.99,131.699997,,2013-07-16 17:12:00,
2013-07-16 13:22:00,75.0,71.0,-100.00,ENE,78,9.0,-999.0,88,0.19,,,-99.99,51.299999,,2013-07-16 17:22:00,
2013-07-16 13:53:00,75.0,73.0,-100.00,SSE,160,10.0,-999.0,95,0.09,,,-99.99,55.599998,,2013-07-16 17:53:00,
2013-07-16 14:01:00,75.0,73.0,-100.00,SSE,160,10.0,-999.0,95,0.09,,,-99.99,55.599998,,2013-07-16 18:01:00,
2013-07-16 14:11:00,73.0,72.0,-100.00,South,174,12.0,-999.0,95,0.03,,,-99.99,26.700001,,2013-07-16 18:11:00,
2013-07-16 14:22:00,73.0,72.0,-100.00,South,181,10.0,-999.0,97,0.35,,,-99.99,40.000000,,2013-07-16 18:22:00,
2013-07-16 14:32:00,73.0,72.0,-100.00,South,181,10.0,-999.0,97,0.35,,,-99.99,40.000000,,2013-07-16 18:32:00,
2013-07-16 14:53:00,72.0,71.0,-100.00,SSE,162,5.0,-999.0,97,0.00,,,-99.99,92.199997,,2013-07-16 18:53:00,
2013-07-16 15:01:00,72.0,71.0,-100.00,SSE,162,5.0,-999.0,97,0.00,,,-99.99,92.199997,,2013-07-16 19:01:00,
2013-07-16 15:11:00,72.0,72.0,-100.00,SSE,168,3.0,-999.0,97,0.00,,,-99.99,111.699997,,2013-07-16 19:11:00,
2013-07-16 15:22:00,73.0,72.0,-100.00,SSE,152,2.0,-999.0,96,0.00,,,-99.99,155.199997,,2013-07-16 19:22:00,
2013-07-16 15:32:00,73.0,72.0,-100.00,SSE,152,2.0,-999.0,96,0.00,,,-99.99,155.199997,,2013-07-16 19:32:00,
2013-07-16 15:52:00,73.0,72.0,-100.00,East,93,3.0,-999.0,95,0.00,,,-99.99,69.300003,,2013-07-16 19:52:00,
2013-07-16 16:03:00,73.0,72.0,-100.00,East,93,3.0,-999.0,95,0.00,,,-99.99,69.300003,,2013-07-16 20:03:00,
2013-07-16 16:32:00,74.0,72.0,-100.00,North,6,3.0,-999.0,95,0.00,,,-99.99,135.500000,,2013-07-16 20:32:00,
2013-07-16 16:52:00,74.0,73.0,-100.00,North,2,6.0,-999.0,96,0.00,,,-99.99,221.800003,,2013-07-16 20:52:00,
2013-07-16 17:01:00,74.0,73.0,-100.00,North,2,6.0,-999.0,96,0.00,,,-99.99,221.800003,,2013-07-16 21:01:00,
2013-07-16 17:11:00,74.0,73.0,-100.00,North,2,6.0,-999.0,96,0.00,,,-99.99,221.800003,,2013-07-16 21:11:00,
2013-07-16 17:32:00,74.0,73.0,-100.00,NE,42,6.0,-999.0,97,0.03,,,-99.99,85.599998,,2013-07-16 21:32:00,
2013-07-16 17:43:00,74.0,73.0,-100.00,NNE,29,5.0,-999.0,97,0.00,,,-99.99,83.800003,,2013-07-16 21:43:00,
2013-07-16 18:01:00,74.0,73.0,-100.00,NNE,16,5.0,-999.0,97,0.13,,,-99.99,42.299999,,2013-07-16 22:01:00,
2013-07-16 18:11:00,74.0,73.0,-100.00,NE,35,5.0,-999.0,98,0.13,,,-99.99,59.900002,,2013-07-16 22:11:00,
2013-07-16 18:33:00,74.0,73.0,-100.00,NE,37,8.0,-999.0,98,0.00,,,-99.99,85.500000,,2013-07-16 22:33:00,
2013-07-16 18:52:00,74.0,73.0,-100.00,NE,48,8.0,-999.0,98,0.00,,,-99.99,103.400002,,2013-07-16 22:52:00,
2013-07-16 19:01:00,74.0,73.0,-100.00,NE,48,8.0,-999.0,98,0.00,,,-99.99,103.400002,,2013-07-16 23:01:00,
2013-07-16 19:11:00,74.0,74.0,-100.00,NE,42,6.0,-999.0,98,0.00,,,-99.99,105.400002,,2013-07-16 23:11:00,
2013-07-16 19:22:00,74.0,74.0,-100.00,NE,41,6.0,-999.0,98,0.00,,,-99.99,95.300003,,2013-07-16 23:22:00,
2013-07-16 19:52:00,74.0,74.0,-100.00,NNE,31,7.0,-999.0,96,0.00,,,-99.99,62.700001,,2013-07-16 23:52:00,
2013-07-16 20:01:00,75.0,74.0,-100.00,NNE,30,4.0,-999.0,96,0.00,,,-99.99,47.299999,,2013-07-17 00:01:00,
2013-07-16 20:11:00,75.0,74.0,-100.00,NNE,30,4.0,-999.0,96,0.00,,,-99.99,47.299999,,2013-07-17 00:11:00,
2013-07-16 20:22:00,74.0,74.0,-100.00,NE,34,5.0,-999.0,97,0.00,,,-99.99,20.900000,,2013-07-17 00:22:00,
2013-07-16 20:33:00,74.0,74.0,-100.00,NE,40,6.0,-999.0,97,0.00,,,-99.99,4.900000,,2013-07-17 00:33:00,
2013-07-16 20:52:00,74.0,74.0,-100.00,NE,51,6.0,-999.0,97,0.00,,,-99.99,0.600000,,2013-07-17 00:52:00,
2013-07-16 21:01:00,74.0,73.0,-100.00,ENE,58,5.0,-999.0,97,0.00,,,-99.99,0.000000,,2013-07-17 01:01:00,
2013-07-16 21:22:00,74.0,73.0,-100.00,NE,55,5.0,-999.0,98,0.00,,,-99.99,0.000000,,2013-07-17 01:22:00,
2013-07-16 21:32:00,74.0,73.0,-100.00,ENE,61,5.0,-999.0,97,0.00,,,-99.99,0.000000,,2013-07-17 01:32:00,
2013-07-16 21:53:00,74.0,73.0,-100.00,ENE,72,3.0,-999.0,97,0.00,,,-99.99,0.000000,,2013-07-17 01:53:00,
2013-07-16 22:01:00,74.0,73.0,-100.00,ENE,72,3.0,-999.0,97,0.00,,,-99.99,0.000000,,2013-07-17 02:01:00,
2013-07-16 22:32:00,73.0,72.0,-100.00,NE,55,4.0,-999.0,97,0.00,,,-99.99,0.000000,,2013-07-17 02:32:00,
2013-07-16 22:53:00,73.0,72.0,-100.00,NE,37,4.0,-999.0,97,0.00,,,-99.99,0.000000,,2013-07-17 02:53:00,
2013-07-16 23:01:00,73.0,72.0,-100.00,NE,37,4.0,-999.0,97,0.00,,,-99.99,0.000000,,2013-07-17 03:01:00,
2013-07-16 23:11:00,73.0,72.0,-100.00,NE,37,4.0,-999.0,97,0.00,,,-99.99,0.000000,,2013-07-17 03:11:00,
2013-07-16 23:32:00,73.0,72.0,-100.00,NNE,23,3.0,-999.0,98,0.00,,,-99.99,0.000000,,2013-07-17 03:32:00,
2013-07-16 23:53:00,73.0,72.0,-100.00,NE,46,5.0,-999.0,99,0.00,,,-99.99,0.000000,,2013-07-17 03:53:00,